[[{"header":{"parameterUnit":"m.s-1","parameterCategory":1,"la1":30.2991,"la2":30.254,"lo1":-89.0895,"lo2":-89.0444,"dy":0.0017,"dx":0.0017,"nx":28,"ny":28,"refTime":"2024-04-06T21:00:00:Z","depth":0,"parameterNumber":2,"parameterNumberName":"U-component_of_WINDS"},"data":[0,0,0,0,0,0,0,0,0,0,0,0,0,0,0,0,0,0,0,0,0,0,0,0,0,0,0,0,0,0,0,0,0,0,0,0,0,0,0,0,0,0,0,0,0,0,0,0,0,0,0,0,0,0,0,0,0,0,-2.3683,-2.3683,0,-2.3657,-2.3657,-2.3657,-2.3582,-2.358,-2.3578,-2.3577,-2.3552,-2.3553,-2.3554,0,0,0,0,0,0,0,0,0,0,0,0,0,-2.367,-2.3671,-2.3683,-2.3683,-2.3682,-2.3657,-2.3657,-2.3656,-2.3582,-2.358,-2.3578,-2.3576,-2.3552,-2.3553,-2.3554,0,0,0,0,0,0,0,0,0,0,0,0,0,-2.3663,-2.3671,-2.3683,-2.3642,-2.3638,-2.3657,-2.3657,-2.3656,-2.3582,-2.358,-2.3577,-2.3575,-2.3552,-2.3553,-2.3554,-2.3612,0,0,-2.3558,-2.3559,0,0,0,0,0,0,0,0,-2.3664,-2.3664,-2.3648,-2.3645,-2.3641,-2.362,-2.3643,-2.3642,-2.3583,-2.3604,-2.3577,-2.3574,-2.3577,-2.3576,-2.3577,-2.3611,-2.361,-2.3559,-2.3559,-2.356,-2.356,0,0,0,0,0,0,0,-2.3664,-2.3665,-2.3673,-2.3648,-2.3644,-2.3626,-2.3622,-2.3643,-2.3605,-2.3602,-2.3596,-2.3594,-2.3574,-2.3576,-2.3576,-2.3609,-2.3558,-2.356,-2.356,-2.3561,-2.3689,-2.3691,0,0,0,0,0,0,-2.3671,-2.3666,-2.3674,-2.3672,-2.3646,-2.3628,-2.3624,-2.3629,-2.3604,-2.3598,-2.3596,-2.359,-2.3575,-2.3574,-2.3575,-2.3639,-2.356,-2.3561,-2.3562,-2.3686,-2.3689,-2.3692,0,0,0,0,0,0,-2.3671,-2.3672,-2.3675,-2.3667,-2.3666,-2.3631,-2.3637,-2.363,-2.3631,-2.36,-2.3593,-2.3604,-2.3573,-2.3573,-2.3603,-2.3638,-2.3562,-2.3563,-2.3683,-2.3687,-2.3691,-2.377,0,0,0,0,0,0,-2.367,-2.3672,-2.3693,-2.3668,-2.3667,-2.3703,-2.364,-2.3631,-2.3633,-2.3626,-2.3606,-2.36,-2.3571,-2.3601,-2.3604,-2.3638,-2.3564,-2.368,-2.3685,-2.369,-2.3765,-2.3777,-2.3787,0,0,0,0,0,-2.367,-2.3717,-2.3695,-2.3696,-2.3692,-2.3705,-2.3704,-2.3669,-2.3636,-2.3657,-2.3637,-2.3601,-2.3634,-2.3605,-2.3608,-2.3642,-2.3678,-2.3684,-2.3689,-2.3759,-2.3774,-2.3787,0,0,0,0,0,0,-2.3748,-2.3713,-2.3688,-2.3728,-2.372,-2.3692,-2.3718,-2.3686,-2.3688,-2.3681,-2.3638,-2.3634,-2.367,-2.366,-2.3628,-2.3697,-2.365,-2.3656,-2.3702,-2.3716,-2.3727,-2.3728,-2.3565,0,0,0,0,0,-2.377,-2.3782,-2.3752,-2.379,-2.3787,-2.3754,-2.3758,-2.3732,-2.3722,-2.3718,-2.37,-2.3693,-2.3702,-2.3708,-2.3715,-2.3763,-2.3757,-2.3788,-2.38,-2.3809,-2.3815,-2.3839,-2.3853,-2.3711,-2.3711,-2.3711,0,0,-2.3815,-2.3797,-2.3808,-2.3805,-2.3796,-2.3811,-2.3751,-2.3769,-2.378,-2.3721,-2.3748,-2.3735,-2.3724,-2.3764,-2.378,-2.3756,-2.3853,-2.3816,-2.3824,-2.3825,-2.3847,-2.386,-2.3872,-2.3715,-2.3715,-2.3714,0,0,-2.3904,-2.3893,-2.3923,-2.3915,-2.3901,-2.3878,-2.3886,-2.3863,-2.3852,-2.3878,-2.3835,-2.3847,-2.3863,-2.3857,-2.3856,-2.3944,-2.391,-2.3947,-2.4005,-2.403,-2.4041,-2.405,-2.4081,-2.4093,-2.3954,-2.3954,-2.3954,0,-2.3962,-2.3981,-2.3943,-2.3963,-2.3964,-2.3911,-2.3941,-2.3936,-2.3926,-2.3927,-2.39,-2.3919,-2.3908,-2.3945,-2.3966,-2.3967,-2.3975,-2.3949,-2.4042,-2.4051,-2.406,-2.4089,-2.41,-2.3958,-2.3958,-2.3957,-2.3957,0,-2.4053,-2.4068,-2.4094,-2.4084,-2.4088,-2.4113,-2.4079,-2.4087,-2.4061,-2.4042,-2.4069,-2.4054,-2.4056,-2.4064,-2.4039,-2.4097,-2.4083,-2.405,-2.4001,-2.4079,-2.4105,-2.4116,-2.3965,-2.3963,-2.3962,-2.3961,0,0,-2.419,-2.4159,-2.4169,-2.4164,-2.4145,-2.4156,-2.418,-2.4181,-2.4189,-2.4184,-2.4203,-2.4218,-2.4187,-2.4186,-2.416,-2.4181,-2.4251,-2.4145,-2.4145,-2.4165,-2.4315,-2.4339,-2.4352,-2.4229,-2.4231,-2.4233,-2.4315,0,-2.4274,-2.4311,-2.4277,-2.4322,-2.4334,-2.4285,-2.4306,-2.4297,-2.428,-2.4289,-2.427,-2.4281,-2.424,-2.4239,-2.4258,-2.4239,-2.4281,-2.4232,-2.4246,-2.4247,-2.4249,-2.4366,-2.4392,-2.447,-2.4326,-2.4327,-2.4328,0,-2.4376,-2.4375,-2.442,-2.4399,-2.4403,-2.4422,-2.442,-2.4429,-2.4419,-2.4405,-2.4404,-2.4372,-2.4394,-2.4348,-2.4378,-2.4346,-2.435,-2.4342,-2.4344,-2.4343,-2.4292,-2.4368,-2.4495,-2.4506,-2.4344,-2.4343,-2.4342,0,-2.447,-2.448,-2.4508,-2.4506,-2.4481,-2.4496,-2.4487,-2.4474,-2.4477,-2.4476,-2.4477,-2.448,-2.4481,-2.4484,-2.4454,-2.4423,-2.4488,-2.4439,-2.4477,-2.4478,-2.4492,-2.4491,-2.4621,-2.4497,-2.4496,-2.4496,-2.4496,0,-2.4567,-2.4597,-2.455,-2.4568,-2.46,-2.4561,-2.4594,-2.458,-2.4569,-2.4583,-2.4541,-2.4555,-2.4515,-2.4525,-2.4502,-2.4531,-2.4532,-2.4521,-2.4514,-2.4524,-2.4526,-2.4526,-2.4519,-2.4499,-2.4499,-2.4498,-2.4497,0,-2.4677,-2.4647,-2.4675,-2.4649,-2.4644,-2.4668,-2.4647,-2.4662,-2.4642,-2.4661,-2.4663,-2.4632,-2.4642,-2.4612,-2.4618,-2.4603,-2.4644,-2.4629,-2.4647,-2.4642,-2.4681,-2.4678,-2.4815,-2.483,-2.4697,-2.4698,-2.47,0,-2.474,-2.4761,-2.4738,-2.4744,-2.4737,-2.4747,-2.475,-2.4713,-2.4718,-2.4708,-2.4724,-2.4731,-2.4734,-2.4753,-2.4731,-2.4735,-2.472,-2.4767,-2.472,-2.4729,-2.4719,-2.4718,-2.472,-2.4777,-2.4778,-2.478,-2.4781,0,-2.4855,-2.4839,-2.4844,-2.4844,-2.4848,-2.4847,-2.4842,-2.485,-2.481,-2.4818,-2.4827,-2.483,-2.4835,-2.4842,-2.4842,-2.4833,-2.4801,-2.4796,-2.4805,-2.4815,-2.4824,-2.4819,-2.4673,-2.4793,-2.4792,-2.4791,-2.479,-2.479,-2.4943,-2.4959,-2.4945,-2.4952,-2.4945,-2.4942,-2.4955,-2.4936,-2.4943,-2.4944,-2.4923,-2.4936,-2.4926,-2.4922,-2.4916,-2.4927,-2.4905,-2.4918,-2.4921,-2.4925,-2.4931,-2.4823,-2.4927,-2.4927,-2.4926,-2.4926,-2.4926,0,-2.5055,-2.5043,-2.505,-2.5045,-2.5051,-2.5019,-2.5013,-2.502,-2.5032,-2.5024,-2.5028,-2.5039,-2.5046,-2.5025,-2.5029,-2.5041,-2.5027,-2.5044,-2.5042,-2.504,-2.4951,-2.4942,-2.5055,-2.5055,-2.5055,-2.5055,-2.5055,-2.5055,-2.5114,-2.514,-2.5123,-2.5145,-2.5134,-2.5146,-2.5145,-2.5142,-2.5136,-2.5149,-2.5154,-2.514,-2.5128,-2.513,-2.5135,-2.5129,-2.5132,-2.5154,-2.5143,-2.5059,-2.5047,-2.5035,-2.5026,-2.5155,-2.5155,-2.5231,-2.5232,-2.5233]},{"header":{"parameterUnit":"m.s-1","parameterCategory":1,"la1":30.2991,"la2":30.254,"lo1":-89.0895,"lo2":-89.0444,"dy":0.0017,"dx":0.0017,"nx":28,"ny":28,"refTime":"2024-04-06T21:00:00:Z","depth":0,"parameterNumber":3,"parameterNumberName":"V-component_of_WINDS"},"data":[0,0,0,0,0,0,0,0,0,0,0,0,0,0,0,0,0,0,0,0,0,0,0,0,0,0,0,0,0,0,0,0,0,0,0,0,0,0,0,0,0,0,0,0,0,0,0,0,0,0,0,0,0,0,0,0,0,0,2.8114,2.8114,0,2.8128,2.8128,2.8129,2.8089,2.8088,2.8087,2.8086,2.8098,2.81,2.8101,0,0,0,0,0,0,0,0,0,0,0,0,0,2.8051,2.8052,2.8114,2.8114,2.8114,2.8128,2.8128,2.8129,2.809,2.8088,2.8087,2.8085,2.8098,2.81,2.8101,0,0,0,0,0,0,0,0,0,0,0,0,0,2.8073,2.8052,2.8114,2.8097,2.8095,2.8128,2.8129,2.8129,2.809,2.8088,2.8086,2.8085,2.8097,2.8099,2.8102,2.8151,0,0,2.8108,2.8109,0,0,0,0,0,0,0,0,2.8072,2.8075,2.8099,2.8098,2.8096,2.8105,2.8111,2.8136,2.809,2.8092,2.8086,2.8084,2.8102,2.8104,2.811,2.8152,2.8153,2.8108,2.811,2.8111,2.8111,0,0,0,0,0,0,0,2.807,2.8074,2.812,2.8099,2.8098,2.8087,2.8089,2.8115,2.8107,2.8092,2.8089,2.8091,2.8101,2.8108,2.811,2.8153,2.8108,2.811,2.8112,2.8113,2.8236,2.8237,0,0,0,0,0,0,2.8071,2.8073,2.8119,2.812,2.8079,2.809,2.8091,2.8104,2.8106,2.8105,2.8093,2.8089,2.8105,2.8108,2.8111,2.8168,2.8111,2.8113,2.8114,2.8234,2.8236,2.8238,0,0,0,0,0,0,2.807,2.8076,2.8118,2.8096,2.8101,2.8093,2.8108,2.8105,2.8113,2.8107,2.8105,2.8102,2.8104,2.8107,2.8142,2.8168,2.8114,2.8116,2.8231,2.8234,2.8237,2.8285,0,0,0,0,0,0,2.8068,2.8075,2.8095,2.8097,2.8102,2.815,2.811,2.8107,2.8117,2.8113,2.8115,2.8114,2.8103,2.8139,2.8144,2.817,2.8117,2.8229,2.8233,2.8236,2.8281,2.8289,2.8296,0,0,0,0,0,2.8066,2.8107,2.8096,2.8102,2.8126,2.8152,2.8155,2.8141,2.8119,2.8138,2.8135,2.8114,2.8165,2.8142,2.8148,2.8176,2.8227,2.8232,2.8236,2.8278,2.8288,2.8296,0,0,0,0,0,0,2.8108,2.8107,2.8095,2.8138,2.8145,2.8145,2.8168,2.8153,2.8166,2.8161,2.8144,2.8145,2.8182,2.8182,2.8157,2.8224,2.8192,2.8198,2.8222,2.8232,2.8239,2.8238,2.8119,0,0,0,0,0,2.8122,2.8144,2.8142,2.818,2.8184,2.8176,2.8187,2.8176,2.8183,2.8185,2.8184,2.8191,2.8208,2.822,2.8236,2.8281,2.8281,2.8303,2.8311,2.8317,2.8322,2.8346,2.8355,2.8253,2.8252,2.8252,0,0,2.8151,2.8154,2.8168,2.8188,2.8193,2.8215,2.8179,2.8204,2.8219,2.8189,2.8221,2.8221,2.8227,2.8267,2.8284,2.8268,2.835,2.8323,2.8328,2.8329,2.8351,2.8361,2.8369,2.8256,2.8255,2.8255,0,0,2.8216,2.8221,2.8253,2.8258,2.8266,2.826,2.8268,2.8271,2.8269,2.8302,2.8279,2.8297,2.8328,2.8333,2.834,2.8408,2.8389,2.8413,2.8453,2.8476,2.8484,2.8491,2.8514,2.8523,2.8418,2.8418,2.8418,0,2.8251,2.8284,2.8271,2.8298,2.8307,2.8281,2.8313,2.8319,2.8331,2.8338,2.832,2.8358,2.836,2.84,2.8417,2.8424,2.8431,2.8412,2.8484,2.8491,2.8497,2.8519,2.8528,2.8421,2.8421,2.8421,2.842,0,2.8327,2.835,2.8375,2.8389,2.8401,2.843,2.842,2.8434,2.8422,2.8418,2.8451,2.8454,2.8469,2.8478,2.8467,2.8517,2.8507,2.8487,2.8455,2.851,2.853,2.8539,2.8425,2.8424,2.8423,2.8423,0,0,2.8417,2.8423,2.8433,2.8438,2.8445,2.8462,2.849,2.8506,2.8518,2.8528,2.855,2.8577,2.8558,2.8566,2.8555,2.8576,2.8628,2.8553,2.8553,2.8566,2.8683,2.8697,2.8707,2.8617,2.8618,2.8619,2.8682,0,2.848,2.8529,2.8518,2.8565,2.8586,2.8563,2.8587,2.8593,2.859,2.8607,2.8604,2.8623,2.8597,2.8602,2.8621,2.8618,2.8651,2.8613,2.8636,2.8637,2.8634,2.8718,2.8733,2.8793,2.869,2.8692,2.8692,0,2.856,2.8574,2.8624,2.8627,2.8635,2.8658,2.8671,2.8688,2.8695,2.8691,2.87,2.8686,2.8712,2.8681,2.8717,2.8691,2.87,2.87,2.8702,2.8703,2.8667,2.872,2.8811,2.882,2.8705,2.8704,2.8703,0,2.862,2.8651,2.8684,2.869,2.8695,2.8711,2.8714,2.8719,2.8729,2.8741,2.8748,2.8763,2.877,2.8782,2.8771,2.875,2.8809,2.8777,2.8806,2.8806,2.8819,2.8818,2.8911,2.8826,2.8826,2.8826,2.8826,0,2.8691,2.8722,2.8711,2.8732,2.8766,2.8753,2.8787,2.8787,2.8791,2.8811,2.8792,2.881,2.8796,2.8813,2.8805,2.8836,2.884,2.8837,2.8834,2.8838,2.8838,2.8843,2.8838,2.8828,2.8828,2.8827,2.8827,0,2.8763,2.8757,2.8792,2.8795,2.8796,2.8821,2.8823,2.8841,2.8837,2.8862,2.8868,2.8861,2.8881,2.8872,2.8892,2.8886,2.8926,2.8918,2.8924,2.8921,2.8951,2.8948,2.905,2.9062,2.897,2.8971,2.8972,0,2.8809,2.8832,2.8838,2.885,2.8854,2.8874,2.8885,2.8873,2.8885,2.8894,2.8912,2.893,2.8943,2.8975,2.8972,2.8987,2.8979,2.9014,2.8981,2.8984,2.8978,2.8977,2.8979,2.902,2.9021,2.9022,2.9022,0,2.8889,2.8885,2.8902,2.8918,2.8932,2.8943,2.8953,2.8964,2.8952,2.8967,2.8987,2.8997,2.9018,2.9036,2.9049,2.9051,2.9035,2.9033,2.904,2.9044,2.9046,2.9045,2.8941,2.903,2.9029,2.9029,2.9028,2.9028,2.8949,2.8969,2.8976,2.8995,2.9001,2.9011,2.9029,2.9027,2.9044,2.9061,2.9053,2.9076,2.9082,2.9098,2.9102,2.912,2.9106,2.9117,2.9119,2.9122,2.9126,2.9044,2.9122,2.9122,2.9122,2.9122,2.9121,0,2.9028,2.9032,2.9049,2.9064,2.9079,2.9064,2.9074,2.9087,2.9108,2.9115,2.9129,2.9152,2.9169,2.9168,2.9184,2.9198,2.9191,2.9202,2.92,2.9201,2.9138,2.9129,2.9208,2.9208,2.9208,2.9208,2.9208,2.9208,2.9071,2.9103,2.91,2.9135,2.9138,2.9162,2.9169,2.9177,2.9183,2.921,2.9224,2.9223,2.9227,2.9243,2.9258,2.9257,2.9263,2.9277,2.9274,2.9214,2.9205,2.9197,2.9189,2.9279,2.9279,2.9335,2.9336,2.9336]}]]